#timestamp,LO_Frequency,Hit,StdDev 
1676966415.0,286047000.2,N
1676966415.9,286047000.2,N
1676966435.8,286046996.9,N
1676966455.6,286046999.4,N
1676966475.4,286046998.3,N
1676966495.3,286046999.6,N
1676966515.1,286047000.4,N
1676966535.8,286046998.8,N
1676966555.7,286047001.0,N
1676966575.5,286046998.8,N
1676966595.4,286046998.8,N
1676966615.2,286047002.1,N
1676966635.0,286047005.7,N
1676966635.9,286047005.7,N
1676966655.8,286047000.8,N
1676966675.6,286046993.2,N
1676966695.4,286046994.5,N
1676966715.3,286046997.8,N
1676966735.1,286047001.3,N
1676966755.9,286047001.0,N
1676966775.7,286046992.7,N
1676966795.5,286046990.7,N
1676966815.4,286046991.3,N
1676966835.2,286046986.7,Y
1676966855.0,286046982.1,P
1676966855.9,286046982.1,N
1676966875.8,286046984.1,N
1676966895.6,286046983.8,N
1676966915.5,286046982.5,N
1676966935.3,286046986.3,N
1676966955.1,286046990.2,N
1676966975.9,286046987.1,N
1676966995.7,286046988.1,N
1676967015.6,286046988.9,N
1676967035.4,286046996.6,N
1676967055.2,286046996.4,N
1676967075.1,286046991.3,N
1676967076.0,286046991.3,N
1676967095.8,286046990.4,N
1676967115.7,286046994.8,N
1676967135.5,286046998.4,N
1676967155.3,286046997.3,N
1676967175.2,286046996.1,N
1676967195.9,286047002.8,N
1676967215.7,286047008.2,N
1676967235.6,286047008.8,N
1676967255.4,286047002.1,N
1676967275.2,286046997.0,N
1676967295.1,286046995.5,N
1676967296.0,286046995.5,N
1676967315.8,286046993.3,N
1676967335.7,286046993.4,N
1676967355.5,286046994.4,N
1676967375.3,286046989.8,N
1676967395.2,286046989.9,N
1676967415.0,286046989.0,N
1676967415.9,286046989.0,N
1676967435.8,286046995.1,N
1676967455.6,286046994.7,N
1676967475.4,286046993.4,N
1676967495.3,286046995.3,N
1676967515.1,286046997.9,N
1676967516.0,286046997.9,N
1676967535.8,286046999.6,N
1676967585.7,286047006.3,E
1676967595.6,286047001.4,N
1676967615.5,286046992.6,P
1676967635.3,286046995.9,N
1676967655.1,286047000.7,N
1676967675.9,286046996.4,N
1676967695.7,286046989.3,Y
1676967715.6,286046989.7,P
1676967735.4,286046987.0,P
1676967755.2,286046986.2,P
1676967775.1,286046982.7,Y
1676967776.0,286046982.7,P
1676967795.8,286046992.8,N
1676967815.6,286046990.1,N
1676967835.5,286046993.1,N
1676967855.3,286046988.5,Y
1676967875.2,286046995.1,P
1676967895.9,286046997.7,N
1676967915.7,286047004.5,N
1676967935.6,286047004.2,N
1676967955.4,286047007.4,N
1676967975.2,286047007.9,N
1676967995.1,286047012.1,N
1676967996.0,286047012.1,N
1676968015.8,286047004.1,N
1676968035.7,286047022.4,Y
1676968055.5,286046996.9,P
1676968075.3,286047005.5,N
1676968095.2,286047002.1,N
1676968115.0,286046998.7,N
1676968115.9,286046998.7,N
1676968135.8,286046999.0,N
1676968155.6,286046999.3,N
1676968175.4,286046994.2,N
1676968195.3,286046991.9,N
1676968215.1,286046987.0,Y
1676968235.8,286046990.3,P
1676968255.7,286046994.0,N
1676968275.5,286046997.5,N
1676968295.3,286046994.5,N
1676968315.2,286046988.9,Y
1676968335.0,286046991.3,P
1676968335.9,286046991.3,P
1676968355.8,286046992.6,P
1676968375.6,286046993.7,Y
1676968395.4,286047002.0,P
1676968415.3,286046999.6,N
1676968435.1,286046993.4,N
1676968455.8,286046996.4,N
1676968475.7,286046993.9,N
1676968495.5,286046999.0,N
1676968515.4,286046998.2,N
1676968535.2,286046997.5,N
1676968555.0,286046993.1,N
1676968555.9,286046993.1,N
1676968575.8,286046991.2,N
1676968595.6,286046996.0,N
1676968615.4,286046999.5,N
1676968635.3,286046998.4,N
1676968655.1,286046997.2,N
1676968675.9,286046994.7,N
1676968695.7,286046992.6,N
1676968715.5,286046992.2,N
1676968735.4,286046994.8,N
1676968755.2,286046992.4,N
1676968775.0,286046996.1,N
1676968775.9,286046996.1,N
1676968795.8,286046992.1,N
1676968815.6,286046990.1,Y
1676968835.5,286046999.7,P
1676968855.3,286046996.6,N
1676968875.1,286046992.3,P
1676968895.9,286046996.1,N
1676968915.7,286047000.6,N
1676968935.5,286046997.2,N
1676968955.4,286046997.5,N
1676968975.2,286046997.2,N
1676968995.1,286046998.1,N
1676968996.0,286046998.1,N
1676969015.8,286047001.1,N
1676969035.6,286046995.8,N
1676969055.5,286047000.8,N
1676969075.3,286046999.4,N
1676969095.1,286046996.8,N
1676969115.9,286046997.2,N
1676969135.7,286046997.9,N
1676969155.6,286046994.4,N
1676969175.4,286046993.8,N
1676969195.2,286046999.3,N
1676969215.1,286047011.9,Y
1676969216.0,286046999.4,P
1676969235.8,286047000.3,N
1676969255.6,286047003.3,N
1676969275.5,286047000.4,N
1676969295.3,286046998.7,N
1676969315.2,286046999.1,N
1676969335.9,286046995.8,N
1676969355.7,286046996.1,N
1676969375.6,286046994.0,N
1676969395.4,286046994.5,N
1676969415.2,286046995.5,N
1676969435.1,286046997.1,N
1676969436.0,286046997.1,N
1676969455.8,286046996.3,N
1676969475.7,286046990.5,Y
1676969495.5,286046992.2,P
1676969515.3,286046992.9,N
1676969535.2,286046991.4,P
1676969555.0,286046991.0,Y
1676969555.9,286046991.0,P
1676969575.7,286046999.6,N
1676969595.6,286047001.8,N
1676969615.4,286047004.1,N
1676969635.3,286047007.6,N
1676969655.1,286047004.8,N
1676969656.0,286047004.8,N
1676969675.8,286047008.5,N
1676969695.7,286047009.1,N
1676969715.5,286047002.9,N
1676969735.3,286047005.2,N
1676969755.2,286047006.9,N
1676969775.0,286047006.7,N
1676969775.9,286047006.7,N
1676969795.8,286047009.6,N
1676969815.6,286047007.8,N
1676969835.4,286047007.8,N
1676969855.3,286047008.2,N
1676969875.1,286047008.2,N
1676969895.8,286047016.3,Y
1676969915.7,286047004.9,P
1676969935.5,286047005.3,P
1676969955.4,286047007.2,P
1676969975.2,286047003.6,Y
1676969995.0,286046996.5,P
1676969995.9,286046996.5,N
